FLX644A SBSL-SBBE

Flight info

Callsign FLX644A
Flight time 0h 43m
Altitude 34000
Route SAVIO DCT LIVED
Aircraft A21N/M-SDE3FGHIRWY/LB1

Departure

Time 2026-05-06 00:04
Airport Marechal Cunha Machado International Airport (SBSL)

Arrival

Time 2026-05-06 00:48
Airport Val de Cans/Júlio Cezar Ribeiro International Airport (SBBE)
Time Latitude Longitude Altitude Speed Heading
2026-05-05 23:51 -2.58470 -44.23717 156 ft 0 kts 340°
2026-05-05 23:56 -2.58479 -44.23714 156 ft 2 kts 340°
2026-05-05 23:57 -2.58494 -44.23708 156 ft 2 kts 340°
2026-05-05 23:57 -2.58508 -44.23703 156 ft 2 kts 340°
2026-05-05 23:57 -2.58522 -44.23700 156 ft 2 kts 17°
2026-05-05 23:57 -2.58534 -44.23709 156 ft 1 kts 61°
2026-05-05 23:58 -2.58537 -44.23715 157 ft 1 kts 75°
2026-05-05 23:58 -2.58538 -44.23718 157 ft 0 kts 71°
2026-05-06 00:00 -2.58533 -44.23705 156 ft 5 kts 71°
2026-05-06 00:00 -2.58509 -44.23638 155 ft 14 kts 70°
2026-05-06 00:01 -2.58465 -44.23521 152 ft 19 kts 69°
2026-05-06 00:01 -2.58470 -44.23412 150 ft 15 kts 133°
2026-05-06 00:01 -2.58561 -44.23424 150 ft 15 kts 213°
2026-05-06 00:01 -2.58660 -44.23498 153 ft 19 kts 219°
2026-05-06 00:02 -2.58771 -44.23589 156 ft 22 kts 219°
2026-05-06 00:02 -2.58902 -44.23696 158 ft 25 kts 220°
2026-05-06 00:02 -2.59049 -44.23814 161 ft 27 kts 219°
2026-05-06 00:02 -2.59208 -44.23942 163 ft 30 kts 219°
2026-05-06 00:03 -2.59381 -44.24081 166 ft 32 kts 218°
2026-05-06 00:03 -2.59551 -44.24216 168 ft 29 kts 219°
2026-05-06 00:03 -2.59650 -44.24334 169 ft 17 kts 249°
2026-05-06 00:03 -2.59700 -44.24339 169 ft 3 kts 49°
2026-05-06 00:04 -2.59623 -44.24275 169 ft 45 kts 39°
2026-05-06 00:04 -2.59151 -44.23893 163 ft 126 kts 38°
2026-05-06 00:04 -2.58312 -44.23212 367 ft 170 kts 39°
2026-05-06 00:04 -2.57408 -44.22438 1118 ft 175 kts 41°
2026-05-06 00:05 -2.55383 -44.20824 2423 ft 201 kts 34°
2026-05-06 00:05 -2.53918 -44.20607 2930 ft 229 kts 349°
2026-05-06 00:05 -2.52541 -44.21563 3391 ft 256 kts 307°
2026-05-06 00:06 -2.51861 -44.23292 3965 ft 274 kts 279°
2026-05-06 00:06 -2.51537 -44.25211 4669 ft 289 kts 278°
2026-05-06 00:06 -2.51200 -44.27212 5559 ft 295 kts 278°
2026-05-06 00:06 -2.50860 -44.29276 6467 ft 300 kts 277°
2026-05-06 00:07 -2.50585 -44.31338 7337 ft 305 kts 276°
2026-05-06 00:07 -2.50323 -44.33460 8190 ft 310 kts 276°
2026-05-06 00:07 -2.50056 -44.35612 9003 ft 316 kts 277°
2026-05-06 00:07 -2.49777 -44.37815 9794 ft 321 kts 277°
2026-05-06 00:08 -2.49489 -44.40034 10546 ft 327 kts 277°
2026-05-06 00:08 -2.49182 -44.42378 11018 ft 344 kts 277°
2026-05-06 00:08 -2.48860 -44.44827 11410 ft 362 kts 277°
2026-05-06 00:08 -2.48522 -44.47408 11768 ft 381 kts 277°
2026-05-06 00:09 -2.48168 -44.50117 12094 ft 398 kts 277°
2026-05-06 00:09 -2.47800 -44.52919 12579 ft 410 kts 277°
2026-05-06 00:09 -2.47418 -44.55817 13275 ft 414 kts 277°
2026-05-06 00:09 -2.47041 -44.58680 13998 ft 416 kts 277°
2026-05-06 00:10 -2.46658 -44.61586 14687 ft 418 kts 277°
2026-05-06 00:10 -2.46275 -44.64493 15341 ft 421 kts 277°
2026-05-06 00:10 -2.45889 -44.67424 15990 ft 423 kts 277°
2026-05-06 00:10 -2.45500 -44.70381 16621 ft 425 kts 277°
2026-05-06 00:11 -2.45112 -44.73329 17216 ft 428 kts 277°
2026-05-06 00:11 -2.44721 -44.76300 17791 ft 430 kts 277°
2026-05-06 00:11 -2.44329 -44.79282 18343 ft 432 kts 277°
2026-05-06 00:11 -2.43934 -44.82284 18881 ft 435 kts 277°
2026-05-06 00:12 -2.43535 -44.85323 19416 ft 437 kts 277°
2026-05-06 00:12 -2.43137 -44.88350 19936 ft 439 kts 277°
2026-05-06 00:12 -2.42739 -44.91380 20411 ft 441 kts 277°
2026-05-06 00:12 -2.42337 -44.94427 20887 ft 443 kts 277°
2026-05-06 00:13 -2.41929 -44.97513 21362 ft 445 kts 277°
2026-05-06 00:13 -2.41522 -45.00597 21821 ft 447 kts 277°
2026-05-06 00:13 -2.41114 -45.03686 22258 ft 449 kts 278°
2026-05-06 00:13 -2.40700 -45.06818 22716 ft 450 kts 277°
2026-05-06 00:14 -2.40287 -45.09917 23122 ft 453 kts 277°
2026-05-06 00:14 -2.39870 -45.13070 23528 ft 455 kts 277°
2026-05-06 00:14 -2.39452 -45.16225 23946 ft 457 kts 277°
2026-05-06 00:14 -2.39035 -45.19386 24333 ft 460 kts 277°
2026-05-06 00:15 -2.38615 -45.22577 24710 ft 463 kts 277°
2026-05-06 00:15 -2.38195 -45.25761 25075 ft 465 kts 276°
2026-05-06 00:15 -2.37766 -45.29021 25440 ft 467 kts 277°
2026-05-06 00:15 -2.37340 -45.32240 25787 ft 469 kts 276°
2026-05-06 00:16 -2.36909 -45.35498 26161 ft 471 kts 276°
2026-05-06 00:16 -2.36477 -45.38763 26665 ft 469 kts 276°
2026-05-06 00:16 -2.36046 -45.42012 27189 ft 466 kts 276°
2026-05-06 00:16 -2.35615 -45.45267 27685 ft 464 kts 276°
2026-05-06 00:17 -2.35195 -45.48445 28162 ft 462 kts 276°
2026-05-06 00:17 -2.34761 -45.51721 28641 ft 461 kts 276°
2026-05-06 00:17 -2.34341 -45.54919 29106 ft 460 kts 276°
2026-05-06 00:17 -2.33917 -45.58137 29590 ft 458 kts 276°
2026-05-06 00:18 -2.33505 -45.61281 30063 ft 456 kts 277°
2026-05-06 00:18 -2.33090 -45.64440 30539 ft 455 kts 277°
2026-05-06 00:18 -2.32674 -45.67587 31012 ft 453 kts 277°
2026-05-06 00:18 -2.32266 -45.70681 31499 ft 451 kts 278°
2026-05-06 00:19 -2.31854 -45.73798 31941 ft 450 kts 278°
2026-05-06 00:19 -2.31446 -45.76873 32345 ft 449 kts 278°
2026-05-06 00:19 -2.31037 -45.79958 32685 ft 450 kts 279°
2026-05-06 00:19 -2.30624 -45.83058 33012 ft 452 kts 279°
2026-05-06 00:20 -2.30208 -45.86171 33351 ft 453 kts 278°
2026-05-06 00:20 -2.29791 -45.89298 33685 ft 454 kts 279°
2026-05-06 00:20 -2.29375 -45.92427 33964 ft 456 kts 278°
2026-05-06 00:21 -2.28539 -45.98728 33974 ft 457 kts 278°
2026-05-06 00:21 -2.27702 -46.05039 33975 ft 456 kts 278°
2026-05-06 00:22 -2.26870 -46.11314 33969 ft 456 kts 279°
2026-05-06 00:22 -2.26036 -46.17586 33964 ft 457 kts 279°
2026-05-06 00:23 -2.25188 -46.23970 33957 ft 457 kts 278°
2026-05-06 00:23 -2.23704 -46.30179 33957 ft 456 kts 293°
2026-05-06 00:24 -2.20861 -46.35819 33956 ft 456 kts 299°
2026-05-06 00:24 -2.17850 -46.41421 33955 ft 456 kts 299°
2026-05-06 00:25 -2.14855 -46.47001 33955 ft 457 kts 299°
2026-05-06 00:25 -2.11809 -46.52695 33952 ft 457 kts 298°
2026-05-06 00:26 -2.08767 -46.58385 33953 ft 457 kts 298°
2026-05-06 00:26 -2.05777 -46.63985 33957 ft 457 kts 298°
2026-05-06 00:27 -2.02757 -46.69641 33956 ft 458 kts 298°
2026-05-06 00:27 -1.99746 -46.75277 33955 ft 458 kts 298°
2026-05-06 00:28 -1.96704 -46.80971 33961 ft 459 kts 298°
2026-05-06 00:28 -1.93649 -46.86689 33969 ft 459 kts 298°
2026-05-06 00:28 -1.92145 -46.89501 33568 ft 461 kts 298°
2026-05-06 00:29 -1.90602 -46.92389 32786 ft 461 kts 298°
2026-05-06 00:29 -1.89082 -46.95232 32010 ft 462 kts 298°
2026-05-06 00:29 -1.87566 -46.98063 31236 ft 463 kts 298°
2026-05-06 00:29 -1.86032 -47.00930 30362 ft 466 kts 298°
2026-05-06 00:30 -1.84477 -47.03834 29431 ft 470 kts 298°
2026-05-06 00:30 -1.82926 -47.06735 28508 ft 473 kts 297°
2026-05-06 00:30 -1.81345 -47.09695 27576 ft 477 kts 297°
2026-05-06 00:30 -1.79777 -47.12634 26614 ft 481 kts 297°
2026-05-06 00:31 -1.78187 -47.15614 25614 ft 485 kts 298°
2026-05-06 00:31 -1.76615 -47.18554 24910 ft 481 kts 298°
2026-05-06 00:31 -1.75027 -47.21527 24312 ft 475 kts 298°
2026-05-06 00:31 -1.73502 -47.24377 23754 ft 469 kts 298°
2026-05-06 00:32 -1.71975 -47.27235 23168 ft 464 kts 298°
2026-05-06 00:32 -1.70467 -47.30056 22598 ft 459 kts 298°
2026-05-06 00:32 -1.68957 -47.32880 22018 ft 456 kts 298°
2026-05-06 00:32 -1.67453 -47.35694 21434 ft 452 kts 298°
2026-05-06 00:33 -1.65965 -47.38480 20837 ft 449 kts 298°
2026-05-06 00:33 -1.64498 -47.41224 20232 ft 446 kts 298°
2026-05-06 00:33 -1.63015 -47.43997 19615 ft 443 kts 298°
2026-05-06 00:33 -1.61542 -47.46753 18980 ft 441 kts 298°
2026-05-06 00:34 -1.60084 -47.49479 18358 ft 438 kts 299°
2026-05-06 00:34 -1.58622 -47.52212 17737 ft 435 kts 299°
2026-05-06 00:34 -1.57177 -47.54915 17130 ft 432 kts 299°
2026-05-06 00:34 -1.55763 -47.57557 16536 ft 429 kts 299°
2026-05-06 00:35 -1.54332 -47.60233 15907 ft 426 kts 299°
2026-05-06 00:35 -1.52930 -47.62853 15297 ft 424 kts 299°
2026-05-06 00:35 -1.51546 -47.65441 14685 ft 421 kts 299°
2026-05-06 00:35 -1.50161 -47.68031 14067 ft 419 kts 299°
2026-05-06 00:36 -1.48774 -47.70624 13442 ft 417 kts 299°
2026-05-06 00:36 -1.47431 -47.73135 12829 ft 415 kts 299°
2026-05-06 00:36 -1.46077 -47.75664 12229 ft 412 kts 299°
2026-05-06 00:36 -1.44722 -47.78194 11640 ft 409 kts 299°
2026-05-06 00:37 -1.43395 -47.80675 11237 ft 400 kts 299°
2026-05-06 00:37 -1.42086 -47.83124 10965 ft 387 kts 299°
2026-05-06 00:37 -1.40827 -47.85480 10738 ft 375 kts 299°
2026-05-06 00:37 -1.39589 -47.87793 10526 ft 362 kts 298°
2026-05-06 00:38 -1.38414 -47.89991 10330 ft 350 kts 298°
2026-05-06 00:38 -1.37287 -47.92097 10151 ft 339 kts 299°
2026-05-06 00:38 -1.36181 -47.94165 9930 ft 329 kts 298°
2026-05-06 00:38 -1.35099 -47.96189 9642 ft 323 kts 298°
2026-05-06 00:39 -1.34043 -47.98161 9258 ft 321 kts 298°
2026-05-06 00:39 -1.32991 -48.00127 8883 ft 319 kts 298°
2026-05-06 00:39 -1.31947 -48.02078 8512 ft 316 kts 298°
2026-05-06 00:39 -1.30912 -48.04012 8150 ft 314 kts 298°
2026-05-06 00:40 -1.29880 -48.05939 7794 ft 311 kts 298°
2026-05-06 00:40 -1.28861 -48.07844 7439 ft 308 kts 298°
2026-05-06 00:40 -1.27855 -48.09723 7080 ft 306 kts 298°
2026-05-06 00:40 -1.26852 -48.11600 6726 ft 304 kts 298°
2026-05-06 00:41 -1.25860 -48.13455 6376 ft 302 kts 298°
2026-05-06 00:41 -1.24871 -48.15303 6026 ft 300 kts 298°
2026-05-06 00:41 -1.23895 -48.17128 5689 ft 297 kts 298°
2026-05-06 00:41 -1.22920 -48.18951 5348 ft 295 kts 299°
2026-05-06 00:42 -1.21935 -48.20792 4985 ft 294 kts 299°
2026-05-06 00:42 -1.20969 -48.22600 4628 ft 292 kts 299°
2026-05-06 00:42 -1.19999 -48.24412 4272 ft 291 kts 300°
2026-05-06 00:42 -1.19164 -48.26217 3979 ft 287 kts 284°
2026-05-06 00:43 -1.19125 -48.28146 3929 ft 272 kts 256°
2026-05-06 00:43 -1.19928 -48.29792 3725 ft 260 kts 226°
2026-05-06 00:43 -1.21225 -48.31030 3552 ft 249 kts 217°
2026-05-06 00:43 -1.22518 -48.32144 3385 ft 241 kts 218°
2026-05-06 00:44 -1.23734 -48.33266 3322 ft 226 kts 220°
2026-05-06 00:44 -1.24829 -48.34344 3142 ft 216 kts 221°
2026-05-06 00:44 -1.25868 -48.35394 2976 ft 204 kts 222°
2026-05-06 00:44 -1.26850 -48.36396 2808 ft 193 kts 223°
2026-05-06 00:45 -1.27784 -48.37345 2579 ft 186 kts 222°
2026-05-06 00:45 -1.28688 -48.38261 2345 ft 180 kts 222°
2026-05-06 00:45 -1.29580 -48.39162 2095 ft 183 kts 223°
2026-05-06 00:45 -1.30487 -48.40080 1836 ft 183 kts 223°
2026-05-06 00:46 -1.31389 -48.40993 1593 ft 183 kts 224°
2026-05-06 00:46 -1.32224 -48.41839 1356 ft 173 kts 224°
2026-05-06 00:46 -1.33022 -48.42648 1139 ft 161 kts 224°
2026-05-06 00:46 -1.33797 -48.43430 953 ft 156 kts 224°
2026-05-06 00:47 -1.34553 -48.44205 756 ft 153 kts 224°
2026-05-06 00:47 -1.35300 -48.44962 541 ft 151 kts 225°
2026-05-06 00:47 -1.36049 -48.45712 332 ft 148 kts 224°
2026-05-06 00:47 -1.36776 -48.46451 142 ft 145 kts 224°
2026-05-06 00:48 -1.37490 -48.47170 63 ft 134 kts 223°
2026-05-06 00:48 -1.38058 -48.47739 61 ft 90 kts 225°
2026-05-06 00:48 -1.38382 -48.48067 61 ft 40 kts 225°
2026-05-06 00:48 -1.38542 -48.48229 61 ft 30 kts 225°
2026-05-06 00:49 -1.38659 -48.48316 61 ft 8 kts 155°
2026-05-06 00:49 -1.38672 -48.48273 61 ft 0 kts 75°
2026-05-06 00:49 -1.38673 -48.48261 61 ft 4 kts 91°
2026-05-06 00:49 -1.38675 -48.48217 61 ft 8 kts 93°
2026-05-06 00:50 -1.38674 -48.48142 61 ft 12 kts 89°
2026-05-06 00:50 -1.38672 -48.48039 61 ft 15 kts 89°
2026-05-06 00:50 -1.38670 -48.47930 61 ft 15 kts 88°
2026-05-06 00:50 -1.38670 -48.47824 61 ft 14 kts 110°
2026-05-06 00:51 -1.38759 -48.47796 61 ft 14 kts 185°
2026-05-06 00:51 -1.38859 -48.47807 61 ft 13 kts 197°
2026-05-06 00:51 -1.38912 -48.47860 61 ft 6 kts 236°
2026-05-06 00:51 -1.38928 -48.47883 61 ft 0 kts 236°
2026-05-06 00:52 -1.38929 -48.47884 61 ft 0 kts 236°